{"data":{"norad_id":66795,"intl_designator":"2025-278E","name":"STARLINK-36047","alt_names":[],"object_type":"PAYLOAD","status":"ACTIVE","operator":null,"country":"US","launch_date":"2025-12-01","launch_site_code":"AFETR","launch_vehicle":null,"mission":null,"orbit_class":"UNKNOWN","rcs_meters":null,"size_class":null,"mass_kg":null,"dimensions":null,"purposes":["comms"],"wikipedia_slug":null,"has_3d_model":false,"image_url":null,"decayed_at":null,"tle_current":{"epoch":"2026-09-20T21:44:33.451872Z","epoch_age_seconds":51489,"freshness":"FRESH","line1":"1 66795U 25278E   26263.90594273  .00013346  00000+0  49356-3 0  9991","line2":"2 66795  43.0055  92.0034 0001666 279.2076  80.8588 15.27584738 45064","mean_motion":15.27584738,"eccentricity":0.0001666,"inclination_deg":43.0055,"raan_deg":92.0034,"arg_perigee_deg":279.2076,"mean_anomaly_deg":80.8588,"bstar":0.00049356,"rev_number":4506,"period_min":94.266456333239,"perigee_km":481.89183755983,"apogee_km":484.17798003984,"semimajor_km":6861.1719087998,"source":"CELESTRAK","updated_at":"2026-09-21T09:00:36.014159Z"}}}